Year,Month,Day,Hour,Minute,Value (Times are PST for temperature in C)
2017,01,04,00,00,-7.10
2017,01,04,00,01,-7.10
2017,01,04,00,02,-7.10
2017,01,04,00,03,-7.10
2017,01,04,00,04,-7.10
2017,01,04,00,05,-7.10
2017,01,04,00,06,-7.10
2017,01,04,00,07,-7.10
2017,01,04,00,08,-7.10
2017,01,04,00,09,-7.10
2017,01,04,00,10,-7.10
2017,01,04,00,11,-7.20
2017,01,04,00,12,-7.20
2017,01,04,00,13,-7.20
2017,01,04,00,14,-7.20
2017,01,04,00,15,-7.20
2017,01,04,00,16,-7.20
2017,01,04,00,17,-7.20
2017,01,04,00,18,-7.20
2017,01,04,00,19,-7.20
2017,01,04,00,20,-7.20
2017,01,04,00,21,-7.20
2017,01,04,00,22,-7.20
2017,01,04,00,23,-7.20
2017,01,04,00,24,-7.20
2017,01,04,00,25,-7.20
2017,01,04,00,26,-7.20
2017,01,04,00,27,-7.20
2017,01,04,00,28,-7.20
2017,01,04,00,29,-7.20
2017,01,04,00,30,-7.20
2017,01,04,00,31,-7.20
2017,01,04,00,32,-7.20
2017,01,04,00,33,-7.30
2017,01,04,00,34,-7.30
2017,01,04,00,35,-7.30
2017,01,04,00,36,-7.30
2017,01,04,00,37,-7.30
2017,01,04,00,38,-7.30
2017,01,04,00,39,-7.30
2017,01,04,00,40,-7.30
2017,01,04,00,41,-7.30
2017,01,04,00,42,-7.30
2017,01,04,00,43,-7.30
2017,01,04,00,44,-7.30
2017,01,04,00,45,-7.30
2017,01,04,00,46,-7.30
2017,01,04,00,47,-7.30
2017,01,04,00,48,-7.30
2017,01,04,00,49,-7.30
2017,01,04,00,50,-7.30
2017,01,04,00,51,-7.30
2017,01,04,00,52,-7.30
2017,01,04,00,53,-7.30
2017,01,04,00,54,-7.30
2017,01,04,00,55,-7.30
2017,01,04,00,56,-7.30
2017,01,04,00,57,-7.40
2017,01,04,00,58,-7.40
2017,01,04,00,59,-7.40
2017,01,04,01,00,-7.40
2017,01,04,01,01,-7.40
2017,01,04,01,02,-7.40
2017,01,04,01,03,-7.40
2017,01,04,01,04,-7.40
2017,01,04,01,05,-7.40
2017,01,04,01,06,-7.40
2017,01,04,01,07,-7.40
2017,01,04,01,08,-7.40
2017,01,04,01,09,-7.40
2017,01,04,01,10,-7.50
2017,01,04,01,11,-7.50
2017,01,04,01,12,-7.60
2017,01,04,01,13,-7.60
2017,01,04,01,14,-7.60
2017,01,04,01,15,-7.60
2017,01,04,01,16,-7.70
2017,01,04,01,17,-7.70
2017,01,04,01,18,-7.70
2017,01,04,01,19,-7.70
2017,01,04,01,20,-7.70
2017,01,04,01,21,-7.70
2017,01,04,01,22,-7.70
2017,01,04,01,23,-7.70
2017,01,04,01,24,-7.70
2017,01,04,01,25,-7.70
2017,01,04,01,26,-7.70
2017,01,04,01,27,-7.70
2017,01,04,01,28,-7.70
2017,01,04,01,29,-7.70
2017,01,04,01,30,-7.70
2017,01,04,01,31,-7.70
2017,01,04,01,32,-7.70
2017,01,04,01,33,-7.70
2017,01,04,01,34,-7.70
2017,01,04,01,35,-7.70
2017,01,04,01,36,-7.80
2017,01,04,01,37,-7.80
2017,01,04,01,38,-7.80
2017,01,04,01,39,-7.80
2017,01,04,01,40,-7.80
2017,01,04,01,41,-7.80
2017,01,04,01,42,-7.80
2017,01,04,01,43,-7.80
2017,01,04,01,44,-7.80
2017,01,04,01,45,-7.80
2017,01,04,01,46,-7.80
2017,01,04,01,47,-7.70
2017,01,04,01,48,-7.70
2017,01,04,01,49,-7.70
2017,01,04,01,50,-7.70
2017,01,04,01,51,-7.70
2017,01,04,01,52,-7.70
2017,01,04,01,53,-7.60
2017,01,04,01,54,-7.60
2017,01,04,01,55,-7.60
2017,01,04,01,56,-7.60
2017,01,04,01,57,-7.50
2017,01,04,01,58,-7.50
2017,01,04,01,59,-7.50
2017,01,04,02,00,-7.50
2017,01,04,02,01,-7.40
2017,01,04,02,02,-7.40
2017,01,04,02,03,-7.40
2017,01,04,02,04,-7.40
2017,01,04,02,05,-7.40
2017,01,04,02,06,-7.40
2017,01,04,02,07,-7.40
2017,01,04,02,08,-7.40
2017,01,04,02,09,-7.50
2017,01,04,02,10,-7.50
2017,01,04,02,11,-7.50
2017,01,04,02,12,-7.50
2017,01,04,02,13,-7.50
2017,01,04,02,14,-7.50
2017,01,04,02,15,-7.40
2017,01,04,02,16,-7.40
2017,01,04,02,17,-7.40
2017,01,04,02,18,-7.40
2017,01,04,02,19,-7.40
2017,01,04,02,20,-7.40
2017,01,04,02,21,-7.40
2017,01,04,02,22,-7.40
2017,01,04,02,23,-7.50
2017,01,04,02,24,-7.50
2017,01,04,02,25,-7.50
2017,01,04,02,26,-7.50
2017,01,04,02,27,-7.50
2017,01,04,02,28,-7.50
2017,01,04,02,29,-7.50
2017,01,04,02,30,-7.50
2017,01,04,02,31,-7.50
2017,01,04,02,32,-7.40
2017,01,04,02,33,-7.40
2017,01,04,02,34,-7.40
2017,01,04,02,35,-7.40
2017,01,04,02,36,-7.40
2017,01,04,02,37,-7.40
2017,01,04,02,38,-7.40
2017,01,04,02,39,-7.40
2017,01,04,02,40,-7.40
2017,01,04,02,41,-7.30
2017,01,04,02,42,-7.30
2017,01,04,02,43,-7.30
2017,01,04,02,44,-7.30
2017,01,04,02,45,-7.30
2017,01,04,02,46,-7.30
2017,01,04,02,47,-7.30
2017,01,04,02,48,-7.30
2017,01,04,02,49,-7.30
2017,01,04,02,50,-7.30
2017,01,04,02,51,-7.30
2017,01,04,02,52,-7.30
2017,01,04,02,53,-7.20
2017,01,04,02,54,-7.20
2017,01,04,02,55,-7.20
2017,01,04,02,56,-7.10
2017,01,04,02,57,-7.10
2017,01,04,02,58,-7.00
2017,01,04,02,59,-6.90
2017,01,04,03,00,-6.90
2017,01,04,03,01,-6.90
2017,01,04,03,02,-6.90
2017,01,04,03,03,-6.80
2017,01,04,03,04,-6.80
2017,01,04,03,05,-6.80
2017,01,04,03,06,-6.80
2017,01,04,03,07,-6.80
2017,01,04,03,08,-6.80
2017,01,04,03,09,-6.80
2017,01,04,03,10,-6.80
2017,01,04,03,11,-6.80
2017,01,04,03,12,-6.70
2017,01,04,03,13,-6.60
2017,01,04,03,14,-6.60
2017,01,04,03,15,-6.60
2017,01,04,03,16,-6.60
2017,01,04,03,17,-6.60
2017,01,04,03,18,-6.60
2017,01,04,03,19,-6.60
2017,01,04,03,20,-6.60
2017,01,04,03,21,-6.60
2017,01,04,03,22,-6.60
2017,01,04,03,23,-6.60
2017,01,04,03,24,-6.60
2017,01,04,03,25,-6.60
2017,01,04,03,26,-6.60
2017,01,04,03,27,-6.60
2017,01,04,03,28,-6.60
2017,01,04,03,29,-6.60
2017,01,04,03,30,-6.60
2017,01,04,03,31,-6.50
2017,01,04,03,32,-6.50
2017,01,04,03,33,-6.50
2017,01,04,03,34,-6.50
2017,01,04,03,35,-6.50
2017,01,04,03,36,-6.50
2017,01,04,03,37,-6.50
2017,01,04,03,38,-6.50
2017,01,04,03,39,-6.50
2017,01,04,03,40,-6.50
2017,01,04,03,41,-6.60
2017,01,04,03,42,-6.60
2017,01,04,03,43,-6.60
2017,01,04,03,44,-6.60
2017,01,04,03,45,-6.60
2017,01,04,03,46,-6.60
2017,01,04,03,47,-6.60
2017,01,04,03,48,-6.70
2017,01,04,03,49,-6.70
2017,01,04,03,50,-6.70
2017,01,04,03,51,-6.70
2017,01,04,03,52,-6.70
2017,01,04,03,53,-6.70
2017,01,04,03,54,-6.70
2017,01,04,03,55,-6.70
2017,01,04,03,56,-6.70
2017,01,04,03,57,-6.70
2017,01,04,03,58,-6.70
2017,01,04,03,59,-6.70
2017,01,04,04,00,-6.70
2017,01,04,04,01,-6.70
2017,01,04,04,02,-6.80
2017,01,04,04,03,-6.80
2017,01,04,04,04,-6.80
2017,01,04,04,05,-6.80
2017,01,04,04,06,-6.80
2017,01,04,04,07,-6.80
2017,01,04,04,08,-6.90
2017,01,04,04,09,-6.90
2017,01,04,04,10,-6.90
2017,01,04,04,11,-7.00
2017,01,04,04,12,-7.00
2017,01,04,04,13,-7.00
2017,01,04,04,14,-7.00
2017,01,04,04,15,-6.90
2017,01,04,04,16,-6.90
2017,01,04,04,17,-6.90
2017,01,04,04,18,-7.00
2017,01,04,04,19,-7.00
2017,01,04,04,20,-7.00
2017,01,04,04,21,-7.10
2017,01,04,04,22,-7.10
2017,01,04,04,23,-7.10
2017,01,04,04,24,-7.10
2017,01,04,04,25,-7.10
2017,01,04,04,26,-7.10
2017,01,04,04,27,-7.10
2017,01,04,04,28,-7.10
2017,01,04,04,29,-7.10
2017,01,04,04,30,-7.10
2017,01,04,04,31,-7.10
2017,01,04,04,32,-7.10
2017,01,04,04,33,-7.10
2017,01,04,04,34,-7.10
2017,01,04,04,35,-7.10
2017,01,04,04,36,-7.10
2017,01,04,04,37,-7.10
2017,01,04,04,38,-7.10
2017,01,04,04,39,-7.20
2017,01,04,04,40,-7.20
2017,01,04,04,41,-7.20
2017,01,04,04,42,-7.20
2017,01,04,04,43,-7.20
2017,01,04,04,44,-7.20
2017,01,04,04,45,-7.20
2017,01,04,04,46,-7.20
2017,01,04,04,47,-7.10
2017,01,04,04,48,-7.20
2017,01,04,04,49,-7.20
2017,01,04,04,50,-7.20
2017,01,04,04,51,-7.20
2017,01,04,04,52,-7.20
2017,01,04,04,53,-7.20
2017,01,04,04,54,-7.30
2017,01,04,04,55,-7.30
2017,01,04,04,56,-7.30
2017,01,04,04,57,-7.30
2017,01,04,04,58,-7.30
2017,01,04,04,59,-7.30
2017,01,04,05,00,-7.30
2017,01,04,05,01,-7.30
2017,01,04,05,02,-7.30
2017,01,04,05,03,-7.30
2017,01,04,05,04,-7.30
2017,01,04,05,05,-7.40
2017,01,04,05,06,-7.40
2017,01,04,05,07,-7.40
2017,01,04,05,08,-7.40
2017,01,04,05,09,-7.40
2017,01,04,05,10,-7.50
2017,01,04,05,11,-7.50
2017,01,04,05,12,-7.60
2017,01,04,05,13,-7.60
2017,01,04,05,14,-7.60
2017,01,04,05,15,-7.60
2017,01,04,05,16,-7.60
2017,01,04,05,17,-7.60
2017,01,04,05,18,-7.60
2017,01,04,05,19,-7.50
2017,01,04,05,20,-7.50
2017,01,04,05,21,-7.50
2017,01,04,05,22,-7.50
2017,01,04,05,23,-7.40
2017,01,04,05,24,-7.40
2017,01,04,05,25,-7.40
2017,01,04,05,26,-7.40
2017,01,04,05,27,-7.40
2017,01,04,05,28,-7.40
2017,01,04,05,29,-7.40
2017,01,04,05,30,-7.40
2017,01,04,05,31,-7.40
2017,01,04,05,32,-7.40
2017,01,04,05,33,-7.40
2017,01,04,05,34,-7.40
2017,01,04,05,35,-7.40
2017,01,04,05,36,-7.40
2017,01,04,05,37,-7.40
2017,01,04,05,38,-7.40
2017,01,04,05,39,-7.40
2017,01,04,05,40,-7.40
2017,01,04,05,41,-7.40
2017,01,04,05,42,-7.40
2017,01,04,05,43,-7.40
2017,01,04,05,44,-7.40
2017,01,04,05,45,-7.40
2017,01,04,05,46,-7.30
2017,01,04,05,47,-7.30
2017,01,04,05,48,-7.20
2017,01,04,05,49,-7.20
2017,01,04,05,50,-7.20
2017,01,04,05,51,-7.20
2017,01,04,05,52,-7.20
2017,01,04,05,53,-7.20
2017,01,04,05,54,-7.20
2017,01,04,05,55,-7.20
2017,01,04,05,56,-7.20
2017,01,04,05,57,-7.20
2017,01,04,05,58,-7.20
2017,01,04,05,59,-7.20
2017,01,04,06,00,-7.30
2017,01,04,06,01,-7.30
2017,01,04,06,02,-7.30
2017,01,04,06,03,-7.30
2017,01,04,06,04,-7.30
2017,01,04,06,05,-7.30
2017,01,04,06,06,-7.30
2017,01,04,06,07,-7.40
2017,01,04,06,08,-7.40
2017,01,04,06,09,-7.40
2017,01,04,06,10,-7.40
2017,01,04,06,11,-7.40
2017,01,04,06,12,-7.40
2017,01,04,06,13,-7.40
2017,01,04,06,14,-7.40
2017,01,04,06,15,-7.40
2017,01,04,06,16,-7.40
2017,01,04,06,17,-7.40
2017,01,04,06,18,-7.40
2017,01,04,06,19,-7.40
2017,01,04,06,20,-7.40
2017,01,04,06,21,-7.40
2017,01,04,06,22,-7.30
2017,01,04,06,23,-7.30
2017,01,04,06,24,-7.30
2017,01,04,06,25,-7.20
2017,01,04,06,26,-7.20
2017,01,04,06,27,-7.20
2017,01,04,06,28,-7.10
2017,01,04,06,29,-7.10
2017,01,04,06,30,-7.00
2017,01,04,06,31,-7.00
2017,01,04,06,32,-6.90
2017,01,04,06,33,-6.80
2017,01,04,06,34,-6.80
2017,01,04,06,35,-6.70
2017,01,04,06,36,-6.60
2017,01,04,06,37,-6.60
2017,01,04,06,38,-6.60
2017,01,04,06,39,-6.50
2017,01,04,06,40,-6.50
2017,01,04,06,41,-6.50
2017,01,04,06,42,-6.50
2017,01,04,06,43,-6.50
2017,01,04,06,44,-6.60
2017,01,04,06,45,-6.60
2017,01,04,06,46,-6.60
2017,01,04,06,47,-6.60
2017,01,04,06,48,-6.60
2017,01,04,06,49,-6.60
2017,01,04,06,50,-6.70
2017,01,04,06,51,-6.70
2017,01,04,06,52,-6.70
2017,01,04,06,53,-6.60
2017,01,04,06,54,-6.50
2017,01,04,06,55,-6.50
2017,01,04,06,56,-6.50
2017,01,04,06,57,-6.40
2017,01,04,06,58,-6.40
2017,01,04,06,59,-6.40
2017,01,04,07,00,-6.50
2017,01,04,07,01,-6.50
2017,01,04,07,02,-6.50
2017,01,04,07,03,-6.50
2017,01,04,07,04,-6.50
2017,01,04,07,05,-6.50
2017,01,04,07,06,-6.50
2017,01,04,07,07,-6.60
2017,01,04,07,08,-6.60
2017,01,04,07,09,-6.60
2017,01,04,07,10,-6.70
2017,01,04,07,11,-6.70
2017,01,04,07,12,-6.70
2017,01,04,07,13,-6.70
2017,01,04,07,14,-6.70
2017,01,04,07,15,-6.80
2017,01,04,07,16,-6.80
2017,01,04,07,17,-6.80
2017,01,04,07,18,-6.70
2017,01,04,07,19,-6.70
2017,01,04,07,20,-6.70
2017,01,04,07,21,-6.70
2017,01,04,07,22,-6.70
2017,01,04,07,23,-6.70
2017,01,04,07,24,-6.70
2017,01,04,07,25,-6.70
2017,01,04,07,26,-6.80
2017,01,04,07,27,-6.80
2017,01,04,07,28,-6.80
2017,01,04,07,29,-6.80
2017,01,04,07,30,-6.80
2017,01,04,07,31,-6.90
2017,01,04,07,32,-6.90
2017,01,04,07,33,-6.90
2017,01,04,07,34,-6.90
2017,01,04,07,35,-6.90
2017,01,04,07,36,-6.90
2017,01,04,07,37,-6.90
2017,01,04,07,38,-7.00
2017,01,04,07,39,-7.00
2017,01,04,07,40,-7.00
2017,01,04,07,41,-6.90
2017,01,04,07,42,-6.80
2017,01,04,07,43,-6.70
2017,01,04,07,44,-6.60
2017,01,04,07,45,-6.50
2017,01,04,07,46,-6.40
2017,01,04,07,47,-6.20
2017,01,04,07,48,-6.10
2017,01,04,07,49,-6.00
2017,01,04,07,50,-5.90
2017,01,04,07,51,-5.80
2017,01,04,07,52,-5.70
2017,01,04,07,53,-5.70
2017,01,04,07,54,-5.60
2017,01,04,07,55,-5.50
2017,01,04,07,56,-5.50
2017,01,04,07,57,-5.40
2017,01,04,07,58,-5.40
2017,01,04,07,59,-5.30
2017,01,04,08,00,-5.30
2017,01,04,08,01,-5.20
2017,01,04,08,02,-5.20
2017,01,04,08,03,-5.10
2017,01,04,08,04,-5.10
2017,01,04,08,05,-5.00
2017,01,04,08,06,-5.00
2017,01,04,08,07,-4.90
2017,01,04,08,08,-4.90
2017,01,04,08,09,-4.90
2017,01,04,08,10,-4.90
2017,01,04,08,11,-4.90
2017,01,04,08,12,-4.80
2017,01,04,08,13,-4.80
2017,01,04,08,14,-4.70
2017,01,04,08,15,-4.70
2017,01,04,08,16,-4.70
2017,01,04,08,17,-4.70
2017,01,04,08,18,-4.70
2017,01,04,08,19,-4.70
2017,01,04,08,20,-4.70
2017,01,04,08,21,-4.80
2017,01,04,08,22,-4.80
2017,01,04,08,23,-4.90
2017,01,04,08,24,-5.00
2017,01,04,08,25,-5.00
2017,01,04,08,26,-5.10
2017,01,04,08,27,-5.20
2017,01,04,08,28,-5.20
2017,01,04,08,29,-5.30
2017,01,04,08,30,-5.40
2017,01,04,08,31,-5.40
2017,01,04,08,32,-5.50
2017,01,04,08,33,-5.60
2017,01,04,08,34,-5.60
2017,01,04,08,35,-5.70
2017,01,04,08,36,-5.70
2017,01,04,08,37,-5.80
2017,01,04,08,38,-5.80
2017,01,04,08,39,-5.90
2017,01,04,08,40,-5.90
2017,01,04,08,41,-5.90
2017,01,04,08,42,-5.90
2017,01,04,08,43,-6.00
2017,01,04,08,44,-6.00
2017,01,04,08,45,-6.00
2017,01,04,08,46,-6.10
2017,01,04,08,47,-6.10
2017,01,04,08,48,-6.10
2017,01,04,08,49,-6.10
2017,01,04,08,50,-6.10
2017,01,04,08,51,-6.10
2017,01,04,08,52,-6.10
2017,01,04,08,53,-6.10
2017,01,04,08,54,-6.10
2017,01,04,08,55,-6.00
2017,01,04,08,56,-6.00
2017,01,04,08,57,-6.00
2017,01,04,08,58,-6.00
2017,01,04,08,59,-6.00
2017,01,04,09,00,-6.00
2017,01,04,09,01,-6.00
2017,01,04,09,02,-6.00
2017,01,04,09,03,-6.00
2017,01,04,09,04,-6.00
2017,01,04,09,05,-6.00
2017,01,04,09,06,-6.00
2017,01,04,09,07,-6.00
2017,01,04,09,08,-6.00
2017,01,04,09,09,-5.90
2017,01,04,09,10,-5.70
2017,01,04,09,11,-5.70
2017,01,04,09,12,-5.60
2017,01,04,09,13,-5.50
2017,01,04,09,14,-5.50
2017,01,04,09,15,-5.40
2017,01,04,09,16,-5.40
2017,01,04,09,17,-5.30
2017,01,04,09,18,-5.30
2017,01,04,09,19,-5.20
2017,01,04,09,20,-5.20
2017,01,04,09,21,-5.10
2017,01,04,09,22,-5.10
2017,01,04,09,23,-5.10
2017,01,04,09,24,-5.00
2017,01,04,09,25,-5.00
2017,01,04,09,26,-4.90
2017,01,04,09,27,-4.90
2017,01,04,09,28,-4.90
2017,01,04,09,29,-4.80
2017,01,04,09,30,-4.80
2017,01,04,09,31,-4.70
2017,01,04,09,32,-4.70
2017,01,04,09,33,-4.60
2017,01,04,09,34,-4.60
2017,01,04,09,35,-4.50
2017,01,04,09,36,-4.40
2017,01,04,09,37,-4.30
2017,01,04,09,38,-4.20
2017,01,04,09,39,-4.10
2017,01,04,09,40,-4.00
2017,01,04,09,41,-3.90
2017,01,04,09,42,-3.80
2017,01,04,09,43,-3.80
2017,01,04,09,44,-3.70
2017,01,04,09,45,-3.70
2017,01,04,09,46,-3.70
2017,01,04,09,47,-3.60
2017,01,04,09,48,-3.60
2017,01,04,09,49,-3.50
2017,01,04,09,50,-3.50
2017,01,04,09,51,-3.40
2017,01,04,09,52,-3.40
2017,01,04,09,53,-3.30
2017,01,04,09,54,-3.30
2017,01,04,09,55,-3.30
2017,01,04,09,56,-3.20
2017,01,04,09,57,-3.20
2017,01,04,09,58,-3.10
2017,01,04,09,59,-3.00
2017,01,04,10,00,-3.00
2017,01,04,10,01,-2.90
2017,01,04,10,02,-2.90
2017,01,04,10,03,-2.80
2017,01,04,10,04,-2.70
2017,01,04,10,05,-2.70
2017,01,04,10,06,-2.60
2017,01,04,10,07,-2.60
2017,01,04,10,08,-2.50
2017,01,04,10,09,-2.40
2017,01,04,10,10,-2.30
2017,01,04,10,11,-2.30
2017,01,04,10,12,-2.20
2017,01,04,10,13,-2.20
2017,01,04,10,14,-2.10
2017,01,04,10,15,-2.00
2017,01,04,10,16,-2.00
2017,01,04,10,17,-1.90
2017,01,04,10,18,-1.90
2017,01,04,10,19,-1.80
2017,01,04,10,20,-1.80
2017,01,04,10,21,-1.70
2017,01,04,10,22,-1.70
2017,01,04,10,23,-1.60
2017,01,04,10,24,-1.50
2017,01,04,10,25,-1.50
2017,01,04,10,26,-1.40
2017,01,04,10,27,-1.30
2017,01,04,10,28,-1.30
2017,01,04,10,29,-1.30
2017,01,04,10,30,-1.20
2017,01,04,10,31,-1.20
2017,01,04,10,32,-1.10
2017,01,04,10,33,-1.10
2017,01,04,10,34,-1.00
2017,01,04,10,35,-1.00
2017,01,04,10,36,-0.90
2017,01,04,10,37,-0.90
2017,01,04,10,38,-0.90
2017,01,04,10,39,-0.80
2017,01,04,10,40,-0.80
2017,01,04,10,41,-0.80
2017,01,04,10,42,-0.70
2017,01,04,10,43,-0.70
2017,01,04,10,44,-0.60
2017,01,04,10,45,-0.60
2017,01,04,10,46,-0.60
2017,01,04,10,47,-0.50
2017,01,04,10,48,-0.50
2017,01,04,10,49,-0.50
2017,01,04,10,50,-0.40
2017,01,04,10,51,-0.40
2017,01,04,10,52,-0.40
2017,01,04,10,53,-0.30
2017,01,04,10,54,-0.30
2017,01,04,10,55,-0.30
2017,01,04,10,56,-0.30
2017,01,04,10,57,-0.20
2017,01,04,10,58,-0.20
2017,01,04,10,59,-0.20
2017,01,04,11,00,-0.10
2017,01,04,11,01,-0.10
2017,01,04,11,02,-0.10
2017,01,04,11,03,0.00
2017,01,04,11,04,0.00
2017,01,04,11,05,0.10
2017,01,04,11,06,0.10
2017,01,04,11,07,0.10
2017,01,04,11,08,0.20
2017,01,04,11,09,0.20
2017,01,04,11,10,0.20
2017,01,04,11,11,0.30
2017,01,04,11,12,0.30
2017,01,04,11,13,0.30
2017,01,04,11,14,0.30
2017,01,04,11,15,0.40
2017,01,04,11,16,0.40
2017,01,04,11,17,0.40
2017,01,04,11,18,0.40
2017,01,04,11,19,0.50
2017,01,04,11,20,0.50
2017,01,04,11,21,0.60
2017,01,04,11,22,0.60
2017,01,04,11,23,0.60
2017,01,04,11,24,0.70
2017,01,04,11,25,0.70
2017,01,04,11,26,0.70
2017,01,04,11,27,0.70
2017,01,04,11,28,0.70
2017,01,04,11,29,0.80
2017,01,04,11,30,0.80
2017,01,04,11,31,0.80
2017,01,04,11,32,0.90
2017,01,04,11,33,0.90
2017,01,04,11,34,1.00
2017,01,04,11,35,1.00
2017,01,04,11,36,1.10
2017,01,04,11,37,1.10
2017,01,04,11,38,1.20
2017,01,04,11,39,1.20
2017,01,04,11,40,1.20
2017,01,04,11,41,1.30
2017,01,04,11,42,1.30
2017,01,04,11,43,1.30
2017,01,04,11,44,1.40
2017,01,04,11,45,1.40
2017,01,04,11,46,1.40
2017,01,04,11,47,1.50
2017,01,04,11,48,1.50
2017,01,04,11,49,1.50
2017,01,04,11,50,1.60
2017,01,04,11,51,1.60
2017,01,04,11,52,1.60
2017,01,04,11,53,1.70
2017,01,04,11,54,1.70
2017,01,04,11,55,1.70
2017,01,04,11,56,1.80
2017,01,04,11,57,1.80
2017,01,04,11,58,1.80
2017,01,04,11,59,1.90
2017,01,04,12,00,1.90
2017,01,04,12,01,2.00
2017,01,04,12,02,2.00
2017,01,04,12,03,2.10
2017,01,04,12,04,2.10
2017,01,04,12,05,2.10
2017,01,04,12,06,2.20
2017,01,04,12,07,2.20
2017,01,04,12,08,2.20
2017,01,04,12,09,2.20
2017,01,04,12,10,2.30
2017,01,04,12,11,2.30
2017,01,04,12,12,2.30
2017,01,04,12,13,2.30
2017,01,04,12,14,2.40
2017,01,04,12,15,2.40
2017,01,04,12,16,2.40
2017,01,04,12,17,2.50
2017,01,04,12,18,2.50
2017,01,04,12,19,2.50
2017,01,04,12,20,2.60
2017,01,04,12,21,2.70
2017,01,04,12,22,2.70
2017,01,04,12,23,2.70
2017,01,04,12,24,2.80
2017,01,04,12,25,2.80
2017,01,04,12,26,2.90
2017,01,04,12,27,2.90
2017,01,04,12,28,2.90
2017,01,04,12,29,3.00
2017,01,04,12,30,3.00
2017,01,04,12,31,3.00
2017,01,04,12,32,3.10
2017,01,04,12,33,3.10
2017,01,04,12,34,3.10
2017,01,04,12,35,3.10
2017,01,04,12,36,3.20
2017,01,04,12,37,3.20
2017,01,04,12,38,3.20
2017,01,04,12,39,3.20
2017,01,04,12,40,3.20
2017,01,04,12,41,3.20
2017,01,04,12,42,3.20
2017,01,04,12,43,3.20
2017,01,04,12,44,3.20
2017,01,04,12,45,3.20
2017,01,04,12,46,3.20
2017,01,04,12,47,3.20
2017,01,04,12,48,3.30
2017,01,04,12,49,3.30
2017,01,04,12,50,3.30
2017,01,04,12,51,3.40
2017,01,04,12,52,3.50
2017,01,04,12,53,3.50
2017,01,04,12,54,3.60
2017,01,04,12,55,3.70
2017,01,04,12,56,3.70
2017,01,04,12,57,3.80
2017,01,04,12,58,3.80
2017,01,04,12,59,3.80
2017,01,04,13,00,3.80
2017,01,04,13,01,3.80
2017,01,04,13,02,3.80
2017,01,04,13,03,3.90
2017,01,04,13,04,3.90
2017,01,04,13,05,3.90
2017,01,04,13,06,4.00
2017,01,04,13,07,4.00
2017,01,04,13,08,4.10
2017,01,04,13,09,4.10
2017,01,04,13,10,4.10
2017,01,04,13,11,4.10
2017,01,04,13,12,4.10
2017,01,04,13,13,4.10
2017,01,04,13,14,4.10
2017,01,04,13,15,4.10
2017,01,04,13,16,4.10
2017,01,04,13,17,4.20
2017,01,04,13,18,4.20
2017,01,04,13,19,4.20
2017,01,04,13,20,4.30
2017,01,04,13,21,4.30
2017,01,04,13,22,4.30
2017,01,04,13,23,4.30
2017,01,04,13,24,4.30
2017,01,04,13,25,4.30
2017,01,04,13,26,4.30
2017,01,04,13,27,4.30
2017,01,04,13,28,4.40
2017,01,04,13,29,4.40
2017,01,04,13,30,4.40
2017,01,04,13,31,4.50
2017,01,04,13,32,4.50
2017,01,04,13,33,4.60
2017,01,04,13,34,4.60
2017,01,04,13,35,4.60
2017,01,04,13,36,4.70
2017,01,04,13,37,4.70
2017,01,04,13,38,4.70
2017,01,04,13,39,4.70
2017,01,04,13,40,4.80
2017,01,04,13,41,4.80
2017,01,04,13,42,4.90
2017,01,04,13,43,4.90
2017,01,04,13,44,4.90
2017,01,04,13,45,5.00
2017,01,04,13,46,4.90
2017,01,04,13,47,4.90
2017,01,04,13,48,4.90
2017,01,04,13,49,4.90
2017,01,04,13,50,4.90
2017,01,04,13,51,4.90
2017,01,04,13,52,4.80
2017,01,04,13,53,4.80
2017,01,04,13,54,4.70
2017,01,04,13,55,4.70
2017,01,04,13,56,4.60
2017,01,04,13,57,4.60
2017,01,04,13,58,4.50
2017,01,04,13,59,4.50
2017,01,04,14,00,4.50
2017,01,04,14,01,4.50
2017,01,04,14,02,4.50
2017,01,04,14,03,4.40
2017,01,04,14,04,4.40
2017,01,04,14,05,4.40
2017,01,04,14,06,4.40
2017,01,04,14,07,4.50
2017,01,04,14,08,4.50
2017,01,04,14,09,4.60
2017,01,04,14,10,4.60
2017,01,04,14,11,4.70
2017,01,04,14,12,4.70
2017,01,04,14,13,4.70
2017,01,04,14,14,4.70
2017,01,04,14,15,4.70
2017,01,04,14,16,4.70
2017,01,04,14,17,4.80
2017,01,04,14,18,4.80
2017,01,04,14,19,4.80
2017,01,04,14,20,4.70
2017,01,04,14,21,4.70
2017,01,04,14,22,4.70
2017,01,04,14,23,4.80
2017,01,04,14,24,4.80
2017,01,04,14,25,4.80
2017,01,04,14,26,4.80
2017,01,04,14,27,4.80
2017,01,04,14,28,4.80
2017,01,04,14,29,4.80
2017,01,04,14,30,4.80
2017,01,04,14,31,4.90
2017,01,04,14,32,4.90
2017,01,04,14,33,4.90
2017,01,04,14,34,4.90
2017,01,04,14,35,4.90
2017,01,04,14,36,4.90
2017,01,04,14,37,4.90
2017,01,04,14,38,5.00
2017,01,04,14,39,5.00
2017,01,04,14,40,5.10
2017,01,04,14,41,5.20
2017,01,04,14,42,5.30
2017,01,04,14,43,5.40
2017,01,04,14,44,5.40
2017,01,04,14,45,5.50
2017,01,04,14,46,5.50
2017,01,04,14,47,5.40
2017,01,04,14,48,5.40
2017,01,04,14,49,5.40
2017,01,04,14,50,5.30
2017,01,04,14,51,5.30
2017,01,04,14,52,5.30
2017,01,04,14,53,5.20
2017,01,04,14,54,5.10
2017,01,04,14,55,5.10
2017,01,04,14,56,5.10
2017,01,04,14,57,5.00
2017,01,04,14,58,5.00
2017,01,04,14,59,4.90
2017,01,04,15,00,4.90
2017,01,04,15,01,4.90
2017,01,04,15,02,4.80
2017,01,04,15,03,4.80
2017,01,04,15,04,4.70
2017,01,04,15,05,4.70
2017,01,04,15,06,4.70
2017,01,04,15,07,4.60
2017,01,04,15,08,4.60
2017,01,04,15,09,4.60
2017,01,04,15,10,4.50
2017,01,04,15,11,4.50
2017,01,04,15,12,4.40
2017,01,04,15,13,4.40
2017,01,04,15,14,4.40
2017,01,04,15,15,4.40
2017,01,04,15,16,4.40
2017,01,04,15,17,4.40
2017,01,04,15,18,4.50
2017,01,04,15,19,4.50
2017,01,04,15,20,4.50
2017,01,04,15,21,4.50
2017,01,04,15,22,4.60
2017,01,04,15,23,4.60
2017,01,04,15,24,4.50
2017,01,04,15,25,4.50
2017,01,04,15,26,4.40
2017,01,04,15,27,4.40
2017,01,04,15,28,4.30
2017,01,04,15,29,4.30
2017,01,04,15,30,4.30
2017,01,04,15,31,4.20
2017,01,04,15,32,4.10
2017,01,04,15,33,4.00
2017,01,04,15,34,3.90
2017,01,04,15,35,3.70
2017,01,04,15,36,3.60
2017,01,04,15,37,3.50
2017,01,04,15,38,3.30
2017,01,04,15,39,3.20
2017,01,04,15,40,3.10
2017,01,04,15,41,3.00
2017,01,04,15,42,2.90
2017,01,04,15,43,2.80
2017,01,04,15,44,2.80
2017,01,04,15,45,2.70
2017,01,04,15,46,2.60
2017,01,04,15,47,2.60
2017,01,04,15,48,2.50
2017,01,04,15,49,2.50
2017,01,04,15,50,2.40
2017,01,04,15,51,2.40
2017,01,04,15,52,2.30
2017,01,04,15,53,2.30
2017,01,04,15,54,2.20
2017,01,04,15,55,2.20
2017,01,04,15,56,2.10
2017,01,04,15,57,2.00
2017,01,04,15,58,2.00
2017,01,04,15,59,1.90
2017,01,04,16,00,1.90
2017,01,04,16,01,1.80
2017,01,04,16,02,1.80
2017,01,04,16,03,1.80
2017,01,04,16,04,1.70
2017,01,04,16,05,1.70
2017,01,04,16,06,1.70
2017,01,04,16,07,1.70
2017,01,04,16,08,1.60
2017,01,04,16,09,1.60
2017,01,04,16,10,1.60
2017,01,04,16,11,1.60
2017,01,04,16,12,1.60
2017,01,04,16,13,1.50
2017,01,04,16,14,1.50
2017,01,04,16,15,1.50
2017,01,04,16,16,1.50
2017,01,04,16,17,1.40
2017,01,04,16,18,1.40
2017,01,04,16,19,1.40
2017,01,04,16,20,1.40
2017,01,04,16,21,1.30
2017,01,04,16,22,1.30
2017,01,04,16,23,1.30
2017,01,04,16,24,1.20
2017,01,04,16,25,1.20
2017,01,04,16,26,1.10
2017,01,04,16,27,1.10
2017,01,04,16,28,1.00
2017,01,04,16,29,1.00
2017,01,04,16,30,0.90
2017,01,04,16,31,0.90
2017,01,04,16,32,0.80
2017,01,04,16,33,0.80
2017,01,04,16,34,0.70
2017,01,04,16,35,0.70
2017,01,04,16,36,0.60
2017,01,04,16,37,0.60
2017,01,04,16,38,0.60
2017,01,04,16,39,0.50
2017,01,04,16,40,0.50
2017,01,04,16,41,0.50
2017,01,04,16,42,0.40
2017,01,04,16,43,0.40
2017,01,04,16,44,0.40
2017,01,04,16,45,0.40
2017,01,04,16,46,0.30
2017,01,04,16,47,0.30
2017,01,04,16,48,0.30
2017,01,04,16,49,0.30
2017,01,04,16,50,0.20
2017,01,04,16,51,0.20
2017,01,04,16,52,0.20
2017,01,04,16,53,0.20
2017,01,04,16,54,0.20
2017,01,04,16,55,0.10
2017,01,04,16,56,0.10
2017,01,04,16,57,0.00
2017,01,04,16,58,0.00
2017,01,04,16,59,-0.10
2017,01,04,17,00,-0.10
2017,01,04,17,01,-0.10
2017,01,04,17,02,-0.10
2017,01,04,17,03,-0.10
2017,01,04,17,04,-0.10
2017,01,04,17,05,-0.10
2017,01,04,17,06,-0.20
2017,01,04,17,07,-0.20
2017,01,04,17,08,-0.20
2017,01,04,17,09,-0.20
2017,01,04,17,10,-0.20
2017,01,04,17,11,-0.30
2017,01,04,17,12,-0.30
2017,01,04,17,13,-0.30
2017,01,04,17,14,-0.40
2017,01,04,17,15,-0.40
2017,01,04,17,16,-0.50
2017,01,04,17,17,-0.50
2017,01,04,17,18,-0.50
2017,01,04,17,19,-0.50
2017,01,04,17,20,-0.50
2017,01,04,17,21,-0.50
2017,01,04,17,22,-0.50
2017,01,04,17,23,-0.50
2017,01,04,17,24,-0.50
2017,01,04,17,25,-0.50
2017,01,04,17,26,-0.40
2017,01,04,17,27,-0.40
2017,01,04,17,28,-0.40
2017,01,04,17,29,-0.40
2017,01,04,17,30,-0.40
2017,01,04,17,31,-0.40
2017,01,04,17,32,-0.40
2017,01,04,17,33,-0.40
2017,01,04,17,34,-0.40